DW0937 Weather Reports


Display with metric or nautical units.
time (UTC)temp
F
wind
direction
speed
MPH
gust
MPH
rain 1hr
in
rain 24hr
in
rain mn
in
humidity
%
barometer
mb
20230208104648 25 169 2.0 4.0 0.00 0.00 0.00 90 1018.9
20230208104150 25 179 2.0 3.0 0.00 0.00 0.00 90 1019.0
20230208103649 25 179 2.0 5.0 0.00 0.00 0.00 89 1019.0
20230208102149 25 192 2.0 4.0 0.00 0.00 0.00 90 1018.9
20230208101648 25 179 2.0 4.0 0.00 0.00 0.00 90 1018.7
20230208100650 25 182 2.0 4.0 0.00 0.00 0.00 89 1018.9
20230208100147 25 172 2.0 4.0 0.00 0.00 0.00 89 1018.9
20230208095646 25 178 2.0 3.0 0.00 0.00 0.00 89 1018.9
20230208095153 25 178 2.0 3.0 0.00 0.00 0.00 89 1018.9
20230208094650 25 170 1.0 3.0 0.00 0.00 0.00 89 1018.9
20230208094145 25 171 1.0 3.0 0.00 0.00 0.00 89 1019.0
20230208093645 25 153 1.0 4.0 0.00 0.00 0.00 89 1019.0
20230208093140 26 152 1.0 4.0 0.00 0.00 0.00 89 1019.0
20230208092641 26 163 2.0 3.0 0.00 0.00 0.00 89 1019.1
20230208092140 25 157 2.0 4.0 0.00 0.00 0.00 89 1019.0
20230208091140 25 178 1.0 2.0 0.00 0.00 0.00 89 1019.1
20230208090640 25 178 1.0 2.0 0.00 0.00 0.00 88 1019.1
20230208090141 25 180 1.0 2.0 0.00 0.00 0.00 88 1019.1
20230208085636 25 180 1.0 3.0 0.00 0.00 0.00 88 1019.1
20230208084636 26 169 0.0 3.0 0.00 0.00 0.00 88 1019.1
20230208084137 26 186 0.0 0.0 0.00 0.00 0.00 88 1019.1
20230208083636 26 188 0.0 0.0 0.00 0.00 0.00 88 1019.2
20230208083136 26 190 0.0 0.0 0.00 0.00 0.00 88 1019.2
20230208082635 26 190 0.0 0.0 0.00 0.00 0.00 88 1019.3
20230208082132 26 195 0.0 0.0 0.00 0.00 0.00 88 1019.4
20230208081632 26 196 0.0 0.0 0.00 0.00 0.00 88 1019.5
20230208081132 26 198 1.0 3.0 0.00 0.00 0.00 88 1019.6
20230208080132 26 196 2.0 4.0 0.00 0.00 0.00 88 1019.6
20230208075129 26 198 2.0 4.0 0.00 0.00 0.00 87 1019.4
20230208074622 26 195 2.0 3.0 0.00 0.00 0.00 87 1019.3
20230208074116 26 210 2.0 4.0 0.00 0.00 0.00 87 1019.3
20230208073610 26 212 1.0 4.0 0.00 0.00 0.00 87 1019.2
20230208073109 26 207 1.0 3.0 0.00 0.00 0.00 87 1019.2
20230208072613 27 210 2.0 4.0 0.00 0.00 0.00 87 1019.3
20230208072109 27 206 2.0 4.0 0.00 0.00 0.00 87 1019.4
20230208071608 27 207 2.0 6.0 0.00 0.00 0.00 87 1019.5
20230208070608 27 225 3.0 6.0 0.00 0.00 0.00 87 1019.5
20230208070108 27 221 4.0 7.0 0.00 0.00 0.00 87 1019.5
20230208065609 27 198 4.0 8.0 0.00 0.00 0.00 87 1019.6
20230208065106 27 232 3.0 8.0 0.00 0.00 0.00 87 1019.7
20230208064608 27 217 3.0 7.0 0.00 0.00 0.00 87 1019.6
20230208064106 27 207 3.0 7.0 0.00 0.00 0.00 87 1019.6
20230208063608 27 194 3.0 4.0 0.00 0.01 0.00 87 1019.6
20230208063108 27 191 3.0 6.0 0.00 0.01 0.00 87 1019.6
20230208061605 27 202 3.0 7.0 0.00 0.01 0.00 87 1019.6
20230208060604 27 215 3.0 7.0 0.00 0.01 0.00 87 1019.6
20230208060106 27 202 3.0 5.0 0.00 0.01 0.00 86 1019.6
20230208055605 27 202 2.0 4.0 0.00 0.01 0.01 86 1019.5
20230208054604 27 198 2.0 6.0 0.00 0.01 0.01 86 1019.4
20230208054104 27 215 2.0 5.0 0.00 0.01 0.01 86 1019.4
20230208053558 27 217 2.0 5.0 0.00 0.01 0.01 86 1019.3
20230208053057 27 183 3.0 5.0 0.00 0.01 0.01 86 1019.3
20230208052558 27 206 3.0 5.0 0.00 0.01 0.01 86 1019.3
20230208052056 27 197 3.0 5.0 0.00 0.01 0.01 86 1019.1
20230208051558 27 196 3.0 6.0 0.00 0.01 0.01 86 1019.2
20230208051058 27 203 3.0 6.0 0.00 0.01 0.01 86 1019.2
20230208050558 27 214 2.0 4.0 0.00 0.01 0.01 86 1019.2
20230208050049 27 189 2.0 5.0 0.00 0.01 0.01 86 1019.1
20230208045550 27 196 2.0 5.0 0.00 0.01 0.01 86 1019.2
20230208044051 27 193 2.0 4.0 0.00 0.02 0.01 85 1019.4
20230208043549 27 198 2.0 4.0 0.00 0.02 0.01 85 1019.5
20230208043053 27 201 2.0 3.0 0.00 0.02 0.01 85 1019.5
20230208042551 27 201 2.0 3.0 0.00 0.02 0.01 85 1019.5
20230208042054 27 202 2.0 4.0 0.00 0.02 0.01 85 1019.4
20230208041552 28 202 2.0 4.0 0.00 0.02 0.01 85 1019.4
20230208041049 28 208 2.0 3.0 0.00 0.02 0.01 85 1019.3
20230208040551 28 208 2.0 4.0 0.00 0.02 0.01 85 1019.2
20230208040050 28 201 2.0 4.0 0.00 0.02 0.01 85 1019.2
20230208035551 28 200 3.0 5.0 0.00 0.02 0.01 85 1019.2
20230208035051 28 195 3.0 5.0 0.00 0.02 0.01 85 1019.1
20230208034545 28 192 3.0 5.0 0.00 0.02 0.01 85 1019.1
20230208034046 28 212 3.0 6.0 0.00 0.03 0.01 85 1019.0
20230208033544 28 190 3.0 6.0 0.00 0.03 0.01 85 1018.8
20230208033045 28 186 3.0 6.0 0.00 0.03 0.01 84 1018.8
20230208032545 28 196 3.0 5.0 0.00 0.03 0.01 84 1018.8
20230208032046 28 201 2.0 5.0 0.00 0.03 0.01 84 1018.7
20230208031545 28 190 2.0 4.0 0.00 0.03 0.01 84 1018.7
20230208031046 28 193 2.0 5.0 0.00 0.03 0.01 84 1018.8
20230208030548 28 185 2.0 5.0 0.00 0.03 0.01 84 1018.7
20230208030048 28 192 1.0 4.0 0.00 0.04 0.01 84 1018.8
20230208025048 28 180 2.0 5.0 0.00 0.04 0.01 83 1018.8
20230208024546 28 186 2.0 5.0 0.00 0.04 0.01 83 1018.7
20230208024046 28 182 1.0 4.0 0.00 0.04 0.01 83 1018.6
20230208023549 28 185 1.0 3.0 0.00 0.04 0.01 83 1018.8
20230208023036 28 188 1.0 3.0 0.00 0.04 0.01 83 1018.7
20230208022550 28 194 2.0 3.0 0.00 0.05 0.01 83 1018.7
20230208022036 28 192 2.0 4.0 0.00 0.05 0.01 83 1018.8
20230208021533 28 194 2.0 5.0 0.00 0.05 0.01 83 1018.9
20230208021032 28 188 2.0 5.0 0.00 0.05 0.01 82 1018.8
20230208020535 28 193 2.0 3.0 0.00 0.05 0.01 82 1019.0
20230208020039 28 195 2.0 3.0 0.00 0.05 0.01 82 1018.9
20230208015534 28 202 2.0 3.0 0.00 0.05 0.01 81 1019.1
20230208014030 28 202 1.0 4.0 0.00 0.06 0.01 81 1019.2
20230208013529 28 204 0.0 0.0 0.00 0.06 0.01 80 1019.1
20230208013030 28 204 0.0 0.0 0.00 0.07 0.01 80 1019.1
20230208012529 28 204 0.0 0.0 0.00 0.07 0.01 80 1019.1
20230208012030 29 204 0.0 0.0 0.00 0.07 0.01 80 1019.0
20230208011525 29 204 1.0 3.0 0.00 0.07 0.01 80 1018.9
20230208011019 29 206 1.0 3.0 0.00 0.07 0.01 79 1018.8
20230208010516 29 212 1.0 2.0 0.00 0.07 0.01 79 1018.7
20230208010017 29 227 1.0 2.0 0.00 0.08 0.01 79 1018.9
20230208005516 29 227 2.0 2.0 0.00 0.08 0.01 78 1019.0
20230208005016 29 227 1.0 2.0 0.00 0.08 0.01 78 1019.1
20230208004516 30 227 0.0 2.0 0.00 0.08 0.01 78 1019.0
20230208004016 30 227 1.0 3.0 0.00 0.08 0.01 77 1019.1
20230208003511 30 227 2.0 5.0 0.00 0.08 0.01 77 1019.0
20230208003009 30 210 3.0 5.0 0.00 0.08 0.01 77 1018.8
20230208002009 30 204 2.0 4.0 0.00 0.09 0.01 76 1018.6
20230208001508 30 196 2.0 6.0 0.00 0.09 0.01 76 1018.5
20230208001020 31 192 2.0 6.0 0.00 0.09 0.01 75 1018.3
20230208000509 31 196 2.0 4.0 0.00 0.09 0.01 75 1018.3
20230208000010 31 205 2.0 6.0 0.00 0.09 0.01 75 1018.4
20230207235509 31 213 2.0 6.0 0.00 0.09 0.01 74 1018.5
20230207235009 31 206 2.0 4.0 0.00 0.09 0.01 74 1018.5
20230207234008 32 204 3.0 7.0 0.00 0.10 0.01 73 1018.4
20230207233508 32 205 3.0 7.0 0.00 0.10 0.01 73 1018.5
20230207233009 32 207 4.0 7.0 0.00 0.10 0.01 72 1018.5
20230207232508 32 215 4.0 7.0 0.00 0.10 0.01 72 1018.4
20230207232000 33 221 3.0 7.0 0.00 0.10 0.01 71 1018.5
20230207231449 33 220 3.0 6.0 0.00 0.10 0.01 71 1018.5
20230207230950 33 209 4.0 6.0 0.00 0.10 0.01 70 1018.3
20230207230450 33 240 4.0 8.0 0.00 0.10 0.01 70 1018.3
20230207225948 33 234 4.0 12.0 0.00 0.10 0.01 70 1018.3
20230207225449 34 221 4.0 12.0 0.00 0.10 0.01 70 1018.2
20230207224951 34 215 4.0 7.0 0.00 0.10 0.01 70 1018.2
20230207224449 34 230 4.0 7.0 0.00 0.10 0.01 69 1018.2
20230207223449 34 227 3.0 10.0 0.00 0.10 0.01 68 1018.4
20230207222949 35 254 3.0 9.0 0.00 0.10 0.01 67 1018.4
20230207221949 35 226 4.0 10.0 0.00 0.10 0.01 66 1018.2
20230207221449 35 257 4.0 8.0 0.00 0.10 0.01 66 1018.3
20230207220950 35 256 4.0 8.0 0.00 0.10 0.01 65 1018.4
20230207220450 36 214 4.0 8.0 0.00 0.10 0.01 65 1018.3
20230207215452 36 186 4.0 8.0 0.00 0.10 0.01 65 1018.1
20230207214454 35 286 5.0 9.0 0.00 0.10 0.01 64 1017.7
20230207213950 35 241 4.0 9.0 0.00 0.10 0.01 63 1017.8
20230207213450 35 283 3.0 8.0 0.00 0.10 0.01 64 1017.7
20230207212951 35 213 4.0 15.0 0.00 0.10 0.01 64 1017.6
20230207212449 35 274 5.0 15.0 0.00 0.10 0.01 64 1017.5
20230207212002 35 286 4.0 13.0 0.00 0.10 0.01 63 1017.5
20230207211502 35 258 4.0 9.0 0.00 0.10 0.01 64 1017.3
20230207210951 35 251 5.0 12.0 0.00 0.10 0.01 64 1017.3
20230207210449 35 296 5.0 12.0 0.00 0.10 0.01 64 1017.2
20230207205949 35 291 4.0 10.0 0.00 0.10 0.01 63 1016.9
20230207205451 35 235 3.0 9.0 0.00 0.10 0.01 65 1016.8
20230207204944 35 243 4.0 11.0 0.00 0.10 0.01 64 1016.7
20230207204447 35 240 5.0 11.0 0.00 0.10 0.01 64 1016.6
20230207203446 35 225 4.0 10.0 0.00 0.10 0.01 65 1016.6
20230207202945 35 250 4.0 10.0 0.00 0.10 0.01 65 1016.5
20230207201945 35 227 4.0 11.0 0.00 0.10 0.01 66 1016.4
20230207201441 35 236 4.0 12.0 0.00 0.11 0.01 65 1016.2
20230207200945 35 228 4.0 12.0 0.00 0.11 0.01 64 1016.3
20230207200441 35 265 4.0 9.0 0.00 0.11 0.01 66 1016.2
20230207195941 35 249 4.0 9.0 0.00 0.11 0.01 65 1016.0
20230207195446 35 257 4.0 9.0 0.00 0.11 0.01 64 1016.1
20230207194440 35 288 3.0 9.0 0.00 0.11 0.01 65 1016.1
20230207193941 35 291 3.0 9.0 0.00 0.12 0.01 64 1016.0
20230207193439 35 325 4.0 7.0 0.00 0.12 0.01 64 1015.9
20230207192939 35 307 5.0 7.0 0.00 0.12 0.01 64 1015.9
20230207191939 34 318 4.0 10.0 0.00 0.12 0.01 66 1015.9
20230207191439 34 300 4.0 10.0 0.00 0.12 0.01 66 1015.9
20230207190938 34 289 5.0 8.0 0.00 0.12 0.01 66 1015.9
20230207190439 34 298 5.0 9.0 0.00 0.12 0.01 65 1015.9
20230207185939 34 297 4.0 11.0 0.00 0.12 0.01 66 1015.9
20230207185434 34 309 4.0 11.0 0.00 0.12 0.01 66 1015.9
20230207184936 33 265 4.0 11.0 0.00 0.12 0.01 66 1015.9
20230207184435 33 286 4.0 11.0 0.00 0.13 0.01 66 1015.8
20230207183936 33 285 4.0 9.0 0.00 0.13 0.01 67 1015.9
20230207182433 33 315 4.0 8.0 0.00 0.13 0.01 68 1015.6
20230207181933 33 302 5.0 11.0 0.00 0.13 0.01 68 1015.8
20230207181434 33 296 5.0 11.0 0.00 0.13 0.01 68 1015.7
20230207180933 33 288 5.0 12.0 0.00 0.13 0.01 68 1015.9
20230207175933 33 281 5.0 11.0 0.00 0.13 0.01 69 1015.7
20230207175428 33 317 6.0 11.0 0.00 0.13 0.01 68 1015.7
20230207174924 33 291 6.0 12.0 0.00 0.13 0.01 69 1015.6
20230207174417 33 314 6.0 12.0 0.00 0.13 0.01 69 1015.6
20230207173918 33 306 5.0 11.0 0.00 0.13 0.01 70 1015.5
20230207173418 33 310 4.0 11.0 0.00 0.13 0.01 72 1015.4
20230207172918 33 277 4.0 11.0 0.00 0.13 0.01 72 1015.4
20230207172419 32 246 4.0 9.0 0.00 0.13 0.01 73 1015.3
20230207171915 32 287 4.0 12.0 0.00 0.13 0.01 73 1015.3
20230207171416 31 288 4.0 12.0 0.00 0.13 0.01 73 1015.3
20230207170915 32 229 4.0 10.0 0.00 0.13 0.01 74 1015.3
20230207170415 31 254 4.0 10.0 0.00 0.13 0.01 75 1015.2
20230207165911 31 255 4.0 10.0 0.00 0.13 0.01 75 1015.2
20230207165413 31 251 4.0 8.0 0.00 0.13 0.01 75 1015.1
20230207164411 31 283 3.0 9.0 0.00 0.13 0.01 76 1014.8
20230207163911 31 232 4.0 8.0 0.00 0.13 0.01 76 1014.7
20230207163409 31 244 4.0 7.0 0.00 0.13 0.01 76 1014.6
20230207162411 30 288 4.0 9.0 0.00 0.13 0.01 77 1014.5
20230207161910 30 265 4.0 8.0 0.00 0.13 0.01 78 1014.3
20230207161409 30 275 4.0 8.0 0.00 0.13 0.01 78 1014.2
20230207160909 30 286 3.0 8.0 0.00 0.13 0.01 79 1014.1
20230207155911 30 309 4.0 8.0 0.00 0.13 0.01 80 1014.0
20230207155411 29 305 5.0 10.0 0.00 0.13 0.01 81 1014.0
20230207154408 29 314 6.0 13.0 0.00 0.13 0.01 83 1013.8
20230207153402 29 255 5.0 11.0 0.00 0.13 0.01 85 1013.6
20230207152905 29 254 4.0 8.0 0.00 0.13 0.01 86 1013.4
20230207151902 29 282 4.0 12.0 0.00 0.13 0.01 86 1013.2
20230207151403 29 246 4.0 12.0 0.00 0.13 0.01 87 1013.1
20230207150904 29 217 5.0 11.0 0.00 0.13 0.01 87 1012.9
20230207150405 29 262 4.0 12.0 0.00 0.13 0.01 87 1012.9
20230207145903 29 267 4.0 12.0 0.00 0.13 0.01 87 1012.7
20230207145405 29 263 4.0 10.0 0.00 0.13 0.01 87 1012.7
20230207144904 29 302 5.0 10.0 0.00 0.13 0.01 87 1012.6
20230207143859 29 288 5.0 10.0 0.00 0.13 0.01 87 1012.3
20230207143359 29 230 4.0 11.0 0.00 0.13 0.01 87 1012.3
20230207142900 29 244 4.0 11.0 0.00 0.13 0.01 87 1012.2
20230207142359 29 273 5.0 14.0 0.00 0.13 0.01 87 1012.1
20230207141900 30 290 5.0 14.0 0.00 0.13 0.01 87 1011.9
20230207141359 30 303 6.0 13.0 0.00 0.13 0.01 87 1011.8
20230207135859 31 306 6.0 10.0 0.00 0.13 0.01 87 1011.3
20230207135359 31 311 6.0 10.0 0.00 0.13 0.01 87 1011.3
20230207134858 31 272 6.0 10.0 0.00 0.13 0.01 87 1011.1
20230207134401 31 288 5.0 10.0 0.00 0.13 0.01 87 1010.8
20230207133350 31 302 6.0 10.0 0.00 0.13 0.01 87 1010.6
20230207132845 32 296 5.0 10.0 0.00 0.13 0.01 87 1010.5
20230207131844 32 306 6.0 10.0 0.00 0.13 0.01 87 1010.3
20230207130844 32 294 6.0 10.0 0.00 0.13 0.01 88 1010.0
20230207130345 32 291 6.0 10.0 0.00 0.13 0.01 88 1009.8
20230207125348 33 279 6.0 12.0 0.00 0.13 0.01 89 1009.6
20230207124348 33 254 5.0 12.0 0.00 0.13 0.01 89 1009.4
20230207123342 33 288 5.0 10.0 0.00 0.13 0.01 89 1009.2
20230207122845 33 269 4.0 10.0 0.00 0.13 0.01 89 1009.0
20230207122344 33 286 4.0 11.0 0.00 0.13 0.01 89 1008.8
20230207121344 33 255 5.0 12.0 0.00 0.13 0.01 89 1008.8
20230207120845 33 273 5.0 12.0 0.00 0.13 0.01 89 1008.6
20230207120344 33 252 4.0 11.0 0.00 0.13 0.01 89 1008.4
20230207115343 33 297 3.0 7.0 0.00 0.13 0.01 89 1008.2
20230207114344 33 240 3.0 10.0 0.00 0.13 0.01 90 1008.0
20230207113845 34 257 4.0 13.0 0.00 0.13 0.01 90 1007.9
20230207113334 34 281 3.0 13.0 0.00 0.13 0.01 90 1007.9
20230207112326 34 259 3.0 6.0 0.00 0.13 0.01 90 1007.9
20230207111823 34 261 2.0 6.0 0.00 0.13 0.01 90 1007.8
20230207111321 34 298 3.0 8.0 0.00 0.13 0.01 90 1007.8
20230207110822 33 282 3.0 8.0 0.00 0.13 0.01 90 1007.7
20230207110322 33 277 2.0 6.0 0.00 0.13 0.01 90 1007.6